Hourly Data Report for March 10, 2020

All times are specified in Local Standard Time (LST). Add 1 hour to adjust for Daylight Saving Time where and when it is observed.

OTTAWA INTL A
ONTARIO
Current Station Operator: NAVCAN

45°19'00.000" N
75°40'00.000" W
114.90 m
6106001
71628
YOW

Download Data

Hourly Data (March 2020)
Hourly Data Report for March 10, 2020
TIME Temp Definition
°C
Dew Point Definition
°C
Rel Hum Definition
%
Wind Dir Definition
10's deg

Wind Spd Definition
km/h
Visibility Definition
km
Stn Press Definition
kPa
Hmdx Definition


Wind Chill Definition


Weather Definition


00:00 4.0 2.6 91 9 8 12.9 100.37     Rain
01:00 3.3 2.6 95 7 9 16.1 100.31     Rain
02:00 3.1 2.6 97 7 8 12.9 100.23     Rain
03:00 2.6 2.2 98 10 11 8.1 100.15     Rain,Fog
04:00 2.6 2.4 98 7 8 2.4 100.03     Rain,Fog
05:00 5.5 5.4 99 17 8 0.4 99.95     Fog
06:00 5.5 5.2 99 18 10 0.8 99.85     Rain,Fog
07:00 4.8 4.6 99 14 7 4.8 99.73     Rain,Fog
08:00 2.6 2.5 99 6 11 4.0 99.62     Fog
09:00 6.0 5.8 98 20 16 16.1 99.53     LegendNANA
10:00 7.2 5.4 88 19 16 16.1 99.42     Rain
11:00 7.1 5.6 90 20 19 12.9 99.35     Rain
12:00 7.0 6.2 94 22 18 24.1 99.32     Rain
13:00 6.9 6.3 96 22 18 16.1 99.28     Rain
14:00 6.1 5.6 97 25 13 24.1 99.28     Rain
15:00 5.7 5.3 97 29 26 12.9 99.38     Rain
16:00 3.5 3.0 97 29 19 24.1 99.54     Cloudy
17:00 2.2 1.0 92 30 25 24.1 99.73     LegendNANA
18:00 1.4 -0.8 85 31 29 24.1 99.90     LegendNANA
19:00 0.8 -1.7 83 30 20 24.1 100.08     Mostly Cloudy
20:00 -0.1 -3.5 78 31 30 24.1 100.24   -7 LegendNANA
21:00 -1.0 -4.5 78 31 27 24.1 100.41   -7 LegendNANA
22:00 -2.1 -6.5 72 31 28 24.1 100.57   -9 Mainly Clear
23:00 -3.0 -7.7 70 31 30 24.1 100.65   -10 LegendNANA

Notes on Data Quality.

Legend

  • E = Estimated
  • M = Missing
  • NA = Not Available*
  • [empty] = Indicates an unobserved value
Date modified: